Tracking 29892 objects as of 21-Nov-2024
HD Live streaming from Space Station
objects crossing your sky now

BRO-5

Track BRO-5 now!
10-day predictions
BRO-5 is classified as:


NORAD ID: 51061
Int'l Code: 2022-002CF
Perigee: 477.5 km
Apogee: 486.2 km
Inclination: 97.4 °
Period: 94.1 minutes
Semi major axis: 6852 km
RCS: Unknown
Launch date: January 13, 2022
Source: France (FR)
Launch site: AIR FORCE EASTERN TEST RANGE (AFETR)

Uplink (MHz):
Downlink (MHz): 401.735
Beacon (MHz):
Mode: 4800bps FSK
Call sign:
Status: Inactive

Your satellite tracking list
Your tracking list is empty




NASA's NSSDC Master Catalog

Two Line Element Set (TLE):
1 51061U 22002CF  24326.09405414  .00012545  00000-0  42916-3 0  9995
2 51061  97.3751  28.8397 0006317 220.4843 139.5928 15.30372887158155
Source of the keplerian elements: AFSPC